Theta_e
318 318 317 317 317 318 322 324 323 323 322 318 317 319 320 323 322 321 323 325 326 327 328 330 331 329 328 329 327 326 329 331 328 327 333 336 335 335 335 336 335 335 335 331 328 325 319 318 318 317 316 316 316 314 312 313 316 320 322 321 326 330 331 331 332 331 325 316 314 324 329 327 326 327 329 329 326 321 320 322 319 315 314 314 312 312 313 311 311 311 310 310 311 311 311 311 311
317 317 316 317 318 319 324 324 322 321 319 316 317 320 321 322 321 321 322 324 326 326 328 330 330 329 327 327 326 326 328 331 332 332 334 335 336 335 333 335 334 336 335 330 329 327 320 318 319 317 316 316 316 316 315 314 315 319 323 323 324 328 330 330 331 328 319 312 318 327 329 328 326 327 328 328 325 323 324 323 322 321 320 322 320 315 312 311 311 312 312 312 312 313 313 312 312
316 316 317 318 320 321 324 323 321 318 316 315 316 321 321 321 322 321 323 326 326 326 329 330 329 328 325 325 326 325 328 332 334 333 332 336 337 334 333 334 334 336 334 331 333 328 320 319 319 318 317 316 317 317 316 315 315 320 326 326 324 328 329 329 330 326 316 311 319 326 327 325 323 325 325 324 324 325 325 321 320 321 320 322 321 316 312 311 312 312 313 313 314 315 315 315 314
316 316 317 321 324 322 323 323 321 319 316 316 316 320 321 322 323 324 326 327 327 327 330 330 329 328 326 327 325 324 331 333 335 332 332 337 336 333 334 333 334 335 334 334 335 329 320 319 319 319 318 317 317 317 317 316 315 318 323 323 323 328 330 330 330 324 318 316 318 321 322 322 319 322 321 322 326 326 325 323 322 321 319 315 314 313 311 311 312 313 314 315 316 316 317 317 317
315 315 316 322 326 323 324 324 323 320 317 317 317 319 322 322 324 325 326 326 327 328 329 329 330 328 326 328 326 328 333 332 334 334 333 338 335 333 335 333 334 335 334 335 335 329 320 320 320 319 319 317 317 317 317 317 316 315 316 316 317 324 328 329 328 322 321 321 321 320 321 321 317 317 319 323 327 325 324 324 321 316 314 313 313 314 312 312 313 313 315 316 317 317 318 318 319
315 316 318 321 325 323 323 321 319 319 319 321 319 320 322 322 324 326 325 325 325 326 327 329 329 328 328 329 328 331 334 333 335 335 336 337 333 334 334 332 335 335 334 335 334 329 320 320 320 319 320 319 318 317 318 318 318 316 314 314 315 320 325 327 328 325 321 321 322 322 322 321 315 314 315 320 324 324 325 324 319 316 316 318 318 317 313 314 314 315 316 317 318 318 319 320 320
318 321 321 321 322 323 322 320 318 319 320 320 320 320 321 323 325 325 325 324 323 323 325 328 328 327 329 328 328 327 329 335 335 335 336 332 331 334 333 333 336 334 335 335 334 329 321 321 321 320 320 320 319 317 318 318 319 318 316 315 316 320 326 328 329 328 322 318 321 320 320 319 315 313 312 315 321 326 327 324 318 316 319 321 319 316 315 316 316 315 317 317 318 319 320 320 321
319 323 323 322 322 323 322 321 321 321 320 319 320 320 321 324 325 324 325 324 323 323 324 326 326 327 327 326 333 329 325 331 334 335 333 328 332 334 333 335 336 334 336 335 335 329 322 322 321 321 320 320 320 318 317 317 318 319 318 316 315 319 325 328 327 328 323 318 317 316 315 314 314 313 311 313 316 321 323 320 316 315 316 316 315 314 315 317 316 315 317 317 318 319 320 321 321
320 323 322 322 323 321 321 321 322 322 320 319 319 319 321 324 324 324 324 324 323 323 324 324 325 326 324 326 334 333 328 328 331 332 330 328 334 335 334 336 335 334 336 335 335 329 322 322 322 322 321 321 320 320 318 316 317 318 319 317 316 316 321 326 326 327 323 316 314 313 312 311 311 312 311 310 311 315 318 316 315 317 317 314 313 314 316 316 316 316 316 317 318 319 320 320 322
321 322 322 322 323 320 318 320 321 321 319 319 319 319 321 323 324 324 323 322 322 323 325 324 324 324 323 327 333 335 332 327 328 332 330 329 334 336 335 336 335 334 335 335 334 328 324 323 322 322 322 322 321 321 319 317 316 317 318 317 316 315 316 320 323 323 318 314 314 313 311 310 309 310 310 309 310 313 317 317 316 319 319 316 315 315 316 316 315 316 316 317 317 318 319 320 322
322 320 321 322 320 318 317 319 320 321 320 319 319 319 320 323 324 323 323 322 321 323 324 323 323 322 323 327 334 335 331 326 328 332 332 331 334 336 336 336 335 334 335 335 333 329 326 324 323 323 323 322 322 322 321 319 317 316 317 316 316 316 315 316 317 317 315 315 315 313 311 310 308 308 308 309 309 309 313 316 315 317 319 317 316 315 316 315 315 316 316 316 317 318 318 320 321
323 320 321 320 319 319 319 320 320 321 320 318 319 319 319 322 323 323 322 321 321 324 323 323 322 322 322 325 333 330 326 328 330 333 333 332 334 335 335 336 334 332 334 334 333 332 329 326 324 323 323 323 323 323 322 321 319 317 317 317 317 317 317 316 316 316 316 316 316 315 313 311 309 308 308 308 308 307 309 311 309 311 315 316 315 315 315 315 315 316 316 316 316 317 318 319 320
323 322 321 320 321 322 321 320 320 321 320 319 319 319 319 322 323 322 321 321 321 322 322 322 321 322 322 326 333 329 326 330 332 334 333 332 334 334 335 336 333 331 333 333 333 333 331 328 327 324 323 324 323 323 323 322 321 319 317 317 318 318 318 317 317 317 316 316 316 316 315 313 311 309 308 308 307 306 307 307 307 309 313 314 315 315 315 315 315 315 315 316 316 316 317 318 318
323 323 322 321 322 322 321 320 319 319 319 320 320 318 319 321 322 322 321 320 320 321 321 321 320 321 322 325 330 332 332 331 332 334 333 333 334 334 335 335 334 333 332 333 333 333 332 330 331 328 324 324 324 323 323 323 322 321 318 318 318 318 318 318 318 318 317 317 316 315 316 316 314 311 308 307 307 306 306 306 307 309 312 315 315 315 315 315 314 315 315 315 316 316 316 317 318
322 322 322 322 321 320 321 320 320 318 319 320 319 318 320 320 319 321 321 320 320 319 320 320 320 320 320 322 327 332 333 330 332 334 333 333 334 334 334 334 334 333 332 334 335 333 333 332 333 332 327 326 326 324 323 323 323 322 320 319 318 318 319 319 319 320 320 319 318 316 315 315 315 314 310 307 306 306 306 306 306 308 312 314 316 316 315 315 314 314 315 315 315 316 316 316 317
320 321 321 321 320 320 320 321 321 319 319 320 318 319 320 319 317 319 319 319 319 318 319 320 320 320 320 325 331 334 329 326 331 333 333 333 334 333 332 333 335 334 333 335 335 333 333 333 333 333 330 329 331 328 323 323 323 323 322 320 319 319 320 320 320 321 322 322 321 320 318 316 315 315 313 309 306 306 305 306 305 307 312 314 316 316 317 316 314 314 313 314 314 315 316 316 317
318 321 321 320 320 320 320 320 319 318 320 319 318 319 319 318 317 318 318 318 318 318 319 320 320 319 320 321 329 336 330 325 330 332 332 332 333 333 333 333 334 334 332 334 335 334 333 333 332 333 332 331 333 331 327 325 324 323 323 322 321 320 320 321 322 322 323 323 324 323 322 320 316 315 315 312 308 307 306 305 305 306 311 314 316 317 317 317 315 313 313 313 313 313 315 316 316
318 321 320 319 321 321 321 321 319 318 320 319 318 319 319 319 317 317 317 317 318 318 318 320 319 318 318 317 322 331 329 326 330 331 332 331 331 333 333 333 333 332 331 332 334 335 334 334 333 333 333 332 332 332 330 328 325 324 324 324 323 322 321 321 322 323 323 324 324 324 324 324 321 317 316 315 311 308 307 306 305 305 309 313 315 317 317 317 316 315 314 313 312 312 313 314 316
320 321 320 320 322 321 320 321 319 318 319 319 318 319 320 319 318 317 317 318 318 318 318 318 319 319 317 316 319 323 326 329 330 330 331 328 329 331 332 333 333 332 331 331 333 334 335 334 334 333 333 332 332 332 331 331 328 324 324 324 324 324 323 322 321 322 323 323 323 324 323 324 324 321 316 316 315 311 308 307 306 305 307 312 315 316 317 317 317 317 316 315 315 314 314 314 314
320 321 321 321 322 320 319 320 317 317 319 320 319 319 320 319 318 317 318 319 318 317 318 318 319 321 319 316 317 319 325 330 330 330 330 328 328 329 330 331 331 332 332 331 333 334 335 334 334 334 333 331 332 332 331 332 331 326 327 326 324 325 324 324 323 322 322 323 323 323 324 323 324 324 320 317 315 315 312 309 308 305 306 310 313 315 317 318 318 319 319 319 318 318 318 317 314
319 319 320 320 321 320 318 317 316 316 318 319 319 319 319 318 317 317 318 318 318 317 317 318 317 320 321 317 316 318 322 328 331 332 331 329 330 329 330 332 330 331 332 332 333 333 334 334 334 334 333 331 332 332 331 333 332 329 329 329 325 325 325 325 325 324 323 323 323 324 324 324 324 325 324 321 317 316 315 313 311 309 307 308 312 315 316 317 318 319 320 320 320 319 320 319 318
319 318 318 319 320 319 316 316 315 315 317 318 318 318 318 317 317 317 318 316 317 317 317 318 317 318 321 318 316 318 319 323 328 331 330 329 330 331 332 334 333 331 332 332 332 333 333 334 334 334 334 332 331 331 331 332 332 331 331 330 328 327 325 326 327 327 326 325 325 325 325 325 325 325 325 325 322 317 316 316 315 313 309 308 310 312 315 317 317 318 319 319 320 320 320 320 320
318 318 318 317 317 317 315 314 314 314 316 318 318 318 317 316 317 317 317 317 317 317 317 317 316 319 322 318 316 317 318 319 322 324 326 328 329 330 333 335 334 332 331 330 331 332 332 333 333 334 334 333 331 331 332 331 331 332 331 331 330 328 325 325 326 327 328 327 326 326 326 326 326 326 326 326 326 322 318 316 317 316 313 310 310 310 312 314 316 318 318 318 319 319 320 320 320
318 318 318 316 315 316 314 313 313 314 316 317 317 316 316 316 316 316 316 317 317 316 315 316 315 318 320 318 315 316 317 317 316 317 322 328 330 329 332 336 335 332 330 328 328 331 331 331 332 332 334 333 333 333 333 332 332 332 331 331 330 328 326 326 326 326 327 327 327 327 326 326 326 326 327 326 327 326 322 318 317 317 316 314 312 311 311 312 313 316 317 318 318 319 319 320 320
317 318 317 315 314 314 312 312 312 313 315 315 315 316 316 316 315 315 316 317 317 316 315 315 314 315 316 315 315 315 316 317 317 319 323 328 332 332 333 335 335 333 331 328 327 329 330 329 329 330 331 332 334 334 333 333 332 332 332 331 330 328 327 328 327 327 327 327 328 328 327 327 327 327 326 327 327 327 326 323 320 318 317 317 315 313 312 310 311 313 315 317 318 318 319 320 320
317 318 317 316 314 313 312 313 312 313 314 314 315 316 315 314 314 316 316 316 316 316 315 315 315 314 315 315 315 314 315 316 317 319 320 323 328 330 329 329 331 332 332 330 328 328 329 327 326 326 328 330 332 333 333 333 333 333 332 331 330 328 328 329 329 329 329 328 328 329 328 328 328 328 327 327 327 327 327 327 325 322 319 318 317 316 314 312 311 311 313 315 317 318 318 319 320
317 317 316 315 314 313 313 314 313 313 313 313 316 316 315 313 314 316 316 316 316 315 315 315 315 314 315 315 315 314 315 316 316 319 322 321 324 324 323 323 325 329 332 332 328 326 327 326 323 323 325 326 329 332 332 333 333 332 332 331 329 328 329 330 330 330 330 330 329 330 330 329 328 328 328 328 327 327 328 328 327 326 324 322 320 319 317 315 313 312 312 313 315 317 318 319 319
316 316 315 315 314 314 313 314 313 314 314 313 316 316 315 313 314 316 316 316 315 315 315 315 315 315 315 314 314 314 316 320 320 322 323 321 319 318 317 318 318 324 330 329 324 323 324 323 321 320 323 324 326 330 331 331 331 330 331 331 329 327 328 330 330 330 331 331 330 330 330 330 329 329 329 329 328 328 328 328 328 328 327 327 325 323 321 319 317 315 314 313 314 316 317 319 319
316 316 316 315 315 315 314 315 313 314 315 313 315 315 314 315 315 316 316 315 314 314 315 315 314 316 318 317 314 314 316 319 320 319 319 317 316 315 314 315 314 317 321 322 321 320 320 320 319 318 321 324 326 329 330 329 330 330 330 331 330 328 327 329 330 329 330 330 330 330 331 331 331 330 330 330 329 328 328 328 328 328 328 328 328 327 325 323 321 319 317 315 314 315 317 318 319
316 316 317 315 315 315 315 315 313 314 314 312 314 314 315 317 316 316 315 314 314 314 315 316 315 315 318 319 316 314 314 315 316 315 315 315 315 315 314 315 314 314 315 316 317 316 316 317 317 317 318 321 323 325 327 326 326 328 329 329 330 329 326 326 327 329 330 330 329 330 330 330 330 330 330 330 329 329 328 328 328 328 328 327 327 327 327 326 325 323 321 319 317 316 317 318 320
315 315 316 316 315 315 315 315 314 315 313 312 313 313 316 318 317 315 315 314 314 315 315 316 316 316 317 317 315 314 314 314 315 315 315 315 314 315 315 314 314 315 314 315 314 314 314 314 314 315 315 316 318 319 321 322 322 323 326 328 329 327 325 322 323 327 329 329 329 328 329 329 329 328 329 329 329 329 328 328 328 328 327 327 326 326 326 326 326 326 325 323 321 320 320 321 322
315 314 314 315 315 314 315 315 314 315 314 313 313 313 316 317 316 313 314 314 313 315 316 315 317 318 317 317 314 314 314 314 314 314 315 314 314 314 314 314 314 315 314 314 315 314 315 314 314 314 314 314 315 316 316 318 320 321 323 326 327 326 323 321 320 322 324 326 326 326 326 327 328 328 328 328 328 328 328 328 327 327 327 327 326 325 324 325 325 325 325 325 325 324 324 324 324
314 314 313 315 315 315 315 314 314 315 314 314 313 314 316 316 315 312 312 313 313 314 316 316 316 316 317 317 315 314 314 314 314 314 315 314 314 314 314 314 314 314 314 314 314 314 315 315 315 314 315 315 314 315 316 316 318 321 322 323 326 327 325 322 318 319 321 322 324 325 323 323 325 327 326 326 326 327 327 327 327 327 326 326 326 325 324 325 325 324 324 324 325 325 326 325 325
314 314 314 315 315 315 315 314 314 315 315 315 313 314 316 316 315 313 312 313 314 314 315 316 316 315 316 315 315 315 314 314 314 314 314 314 315 314 314 314 314 314 314 314 314 314 315 314 314 314 314 315 315 315 316 318 319 321 322 322 324 325 326 325 321 320 318 318 322 323 321 319 321 324 324 324 325 325 324 324 325 325 325 325 326 326 326 325 326 326 325 324 324 324 325 325 325
313 313 314 315 315 314 315 314 314 314 314 315 315 314 315 316 316 315 313 313 314 315 315 315 315 315 315 315 315 315 314 314 314 314 314 314 315 315 314 314 315 315 314 314 314 314 314 314 314 314 314 314 315 315 316 318 319 320 321 320 321 322 323 324 323 320 316 317 319 319 319 317 320 324 324 323 323 325 326 324 324 325 326 327 326 326 325 325 326 327 326 325 324 323 324 325 325
315 314 314 314 313 313 314 314 312 313 314 315 315 315 315 316 316 316 315 314 314 314 315 315 315 315 315 315 315 315 314 314 314 314 314 314 314 315 315 315 315 315 315 315 314 315 314 315 314 314 314 314 315 315 316 317 318 319 318 318 319 319 320 319 320 319 316 317 317 318 319 318 324 328 324 321 322 327 329 328 326 326 327 328 327 324 322 323 325 326 326 326 324 323 324 325 325
316 315 314 314 314 313 314 313 311 313 314 315 315 316 316 316 316 317 317 315 315 315 315 315 315 315 315 315 315 315 314 314 314 314 314 314 314 315 315 315 315 315 315 315 315 315 314 315 315 315 315 314 315 315 315 316 316 317 317 316 316 316 318 317 317 319 318 317 317 318 319 319 324 326 322 321 323 326 329 330 329 327 326 327 327 325 322 322 323 324 325 325 324 324 323 324 325
315 315 314 314 314 314 313 313 312 312 313 314 315 315 315 316 316 317 317 316 316 316 316 315 315 316 316 316 316 316 315 314 314 314 314 314 314 314 315 315 315 315 315 315 314 315 315 315 315 315 315 315 315 315 315 315 315 315 315 316 315 315 316 316 316 318 319 320 319 317 317 317 318 318 321 325 326 324 324 329 332 328 325 326 326 324 322 323 324 324 325 325 326 325 324 324 325
314 314 314 313 314 314 313 313 312 312 312 314 315 315 315 316 316 316 317 316 316 316 316 315 315 315 316 317 316 316 316 315 314 315 315 315 314 314 314 315 315 315 315 315 315 314 314 315 315 315 315 315 315 315 315 315 315 315 315 315 316 316 317 317 316 316 317 318 318 316 316 316 316 317 322 327 330 327 322 324 330 328 326 327 327 326 324 324 326 327 327 327 327 327 326 326 326
314 314 312 313 315 313 312 313 312 311 311 313 314 315 315 315 315 316 317 317 317 317 317 316 316 316 316 317 317 316 316 315 315 315 315 315 315 314 314 314 314 314 315 314 314 314 314 314 315 314 314 314 315 315 315 315 315 315 315 315 315 316 318 318 317 316 315 315 315 316 314 315 317 318 321 327 330 328 321 319 323 325 327 329 329 329 327 327 328 328 327 327 327 326 325 326 326
315 317 314 315 316 314 313 314 312 312 311 312 314 313 313 315 315 315 317 317 317 317 316 316 315 316 315 316 316 316 315 315 315 315 315 316 316 315 315 315 314 314 314 314 314 314 314 314 314 314 314 314 314 314 314 314 315 315 314 315 315 315 316 316 316 316 315 315 316 316 316 316 318 317 318 324 325 322 321 321 321 321 324 328 329 329 329 329 328 326 325 325 324 323 323 324 325
314 317 316 315 314 314 314 314 313 313 313 313 314 311 311 315 316 316 317 316 316 316 316 316 315 315 315 315 315 315 315 315 315 315 315 315 315 316 316 315 315 315 315 315 314 314 314 314 314 314 314 315 314 314 315 314 314 314 314 314 315 315 315 314 315 315 315 315 315 316 317 316 318 318 318 320 320 319 321 324 324 322 320 324 329 329 328 327 325 323 323 322 321 322 324 325 325
312 316 316 314 314 315 315 315 314 313 313 312 312 312 311 314 316 317 317 315 315 315 316 316 315 315 315 315 315 315 315 315 315 315 315 315 315 315 315 315 315 315 315 315 315 315 314 314 314 313 313 314 314 314 314 315 314 314 314 314 314 314 315 314 314 315 315 315 316 315 317 316 316 318 319 320 321 321 322 323 326 324 321 322 325 324 324 323 323 323 323 322 321 323 325 325 324
314 316 316 313 315 317 316 316 315 314 314 312 312 314 312 312 315 316 316 315 315 315 315 316 315 316 316 315 314 314 315 314 315 315 314 315 315 315 315 315 315 315 315 315 315 315 314 314 314 313 314 313 313 314 314 315 314 315 314 314 315 315 315 315 314 315 315 315 316 316 316 316 316 317 318 320 320 321 322 322 324 324 323 321 319 320 322 323 323 326 327 326 324 322 323 324 324
316 315 315 315 316 317 317 316 315 315 314 312 314 315 312 311 314 316 314 314 315 315 315 316 316 316 315 314 313 313 313 313 314 314 314 314 314 315 314 314 315 314 315 315 314 314 314 314 314 313 313 313 313 313 313 314 314 314 315 314 315 315 315 315 315 315 316 316 316 316 316 316 316 317 317 318 319 319 320 321 322 322 322 321 318 321 324 323 324 327 326 324 322 321 321 321 321
314 313 314 316 316 317 317 316 315 314 313 312 315 315 312 311 313 315 315 314 315 316 316 317 317 316 315 315 314 313 313 313 313 313 313 314 314 314 314 314 314 314 314 314 314 314 314 313 313 313 313 313 313 312 312 313 314 314 315 314 315 315 315 315 315 315 316 316 316 316 316 316 316 317 317 317 317 318 318 319 320 320 320 319 319 321 323 322 322 321 320 321 324 323 320 319 321
313 314 315 315 315 315 315 315 314 313 313 313 314 314 313 311 312 316 316 314 314 316 315 316 316 316 315 315 314 313 313 313 314 314 313 314 314 314 314 313 314 313 314 314 313 313 313 313 313 313 313 313 312 313 312 313 314 315 314 315 315 315 315 315 315 316 315 316 316 316 316 316 315 316 316 316 316 317 317 317 317 317 317 317 318 318 319 319 318 317 319 323 325 322 318 319 322
315 316 315 314 314 314 313 313 313 313 313 312 311 313 314 311 312 315 316 313 313 314 314 314 315 316 316 314 313 313 314 313 312 312 313 313 313 313 313 312 313 313 313 313 314 314 314 314 314 313 313 313 313 312 312 314 315 315 315 315 315 315 315 315 315 316 316 316 316 316 315 315 315 315 315 315 315 316 316 315 316 316 315 315 315 316 316 316 316 316 318 320 320 318 317 318 319
315 315 314 314 314 314 314 313 313 313 312 310 309 312 313 312 313 314 315 314 313 313 314 314 315 316 315 314 312 312 314 314 312 311 311 312 312 312 312 313 313 314 314 314 314 314 314 314 313 313 313 313 313 312 313 314 315 315 315 315 315 315 315 316 316 316 316 316 316 315 315 315 315 315 315 315 315 315 315 315 315 315 315 315 314 315 315 315 315 315 315 315 316 317 317 317 317
314 314 313 313 313 315 315 314 313 313 312 309 309 311 312 312 313 314 315 314 313 313 313 314 314 314 313 312 312 312 313 314 314 313 313 313 313 314 314 314 315 315 314 314 314 314 314 314 314 313 313 313 313 313 313 315 315 315 315 315 315 316 316 316 316 316 316 316 315 315 315 315 315 315 315 315 315 315 315 315 315 314 314 314 314 314 314 314 314 314 314 313 314 314 314 314 314
314 316 315 313 313 314 315 314 314 314 312 309 309 311 311 312 313 314 314 313 311 312 312 312 311 312 312 311 312 313 314 315 315 315 315 315 315 315 315 315 315 315 315 314 315 314 314 314 314 314 314 314 313 314 314 315 315 315 315 316 316 316 316 316 316 316 316 316 316 315 315 315 315 315 315 315 315 315 315 315 315 314 314 314 314 314 314 314 314 313 313 313 313 313 313 313 312
314 316 316 314 314 314 312 312 312 312 312 311 310 311 312 314 314 314 314 312 310 310 310 311 311 312 311 312 313 313 314 315 315 315 315 315 316 315 316 316 315 315 315 315 315 315 315 315 315 314 314 315 315 315 315 315 316 316 316 316 316 316 316 316 316 316 316 316 316 316 316 316 316 316 316 315 315 315 315 315 315 315 315 314 314 314 314 314 314 313 313 313 313 313 312 313 312
314 314 314 314 314 314 312 310 309 309 311 313 312 312 313 313 314 315 314 312 311 311 310 311 312 312 312 312 313 314 314 314 315 315 315 315 315 315 316 316 316 316 316 316 316 316 316 316 316 316 316 316 316 316 316 316 316 316 316 316 316 316 316 316 316 316 316 316 316 316 316 316 316 316 316 315 315 315 315 315 315 315 315 315 315 315 314 314 314 313 313 313 313 312 312 312 312
313 313 314 313 313 313 311 311 311 310 311 312 311 311 311 311 312 314 314 312 312 311 311 312 312 312 312 313 313 314 314 314 314 314 314 314 315 315 316 315 316 316 316 316 316 316 316 316 316 316 316 316 316 316 316 316 316 316 316 316 316 316 316 316 316 316 316 316 316 317 316 316 316 316 315 315 315 315 315 315 315 315 315 315 314 314 314 314 314 313 313 313 312 312 312 312 312
311 312 313 313 313 312 311 312 312 312 312 312 311 310 310 311 312 312 313 313 312 312 312 312 312 312 313 314 313 313 313 313 313 312 312 313 314 314 315 315 315 316 316 316 316 316 316 316 316 316 316 316 316 316 316 316 316 316 316 317 317 316 316 316 317 317 316 317 317 316 316 316 316 316 316 316 315 315 315 315 315 315 314 314 314 314 314 314 313 313 313 313 313 312 312 312 311
310 310 311 313 314 313 312 312 312 312 312 311 311 310 310 312 313 312 313 313 312 312 313 313 312 313 314 313 313 313 312 312 312 312 312 312 313 314 314 315 315 316 316 316 316 316 316 316 316 316 315 315 315 315 315 316 316 316 317 317 317 317 317 317 317 317 317 317 316 316 316 316 316 316 316 316 316 316 316 315 315 315 314 314 314 313 313 313 313 313 313 313 312 312 312 312 311
310 310 311 312 312 311 311 312 311 311 311 311 312 311 311 313 314 313 314 313 312 312 312 314 314 314 313 312 312 311 312 313 313 313 313 312 313 314 314 314 315 315 316 316 316 316 316 316 316 316 315 316 316 316 316 316 316 317 317 317 317 317 317 317 317 316 316 316 316 316 316 316 316 316 317 316 316 316 316 316 315 315 314 314 313 313 313 313 313 313 313 312 312 312 312 312 312
312 311 311 312 312 312 312 313 311 310 310 311 311 311 312 313 312 313 313 311 311 311 311 313 314 313 312 311 311 312 313 314 314 313 313 313 314 314 315 315 315 315 315 316 316 316 316 316 316 316 316 316 316 316 316 316 317 317 316 316 317 316 317 317 316 316 316 316 317 317 316 316 316 316 316 316 316 316 316 316 315 315 314 314 313 313 313 313 312 312 312 312 312 312 312 312 312
Wind_Speed
4 3 3 2 1 1 4 5 5 3 4 2 3 2 5 5 4 7 8 6 6 6 4 7 9 5 2 4 4 6 10 9 6 4 2 11 18 16 14 14 15 14 11 11 9 7 8 9 11 11 11 12 13 13 13 12 12 12 11 13 16 16 15 12 9 7 7 9 11 13 13 14 15 16 15 13 12 13 13 14 14 14 14 14 15 15 16 17 17 17 16 16 16 16 16 15 14
4 3 4 2 2 3 3 3 4 3 3 2 3 1 7 6 5 8 8 6 6 8 6 9 9 4 3 3 2 3 9 12 10 9 10 17 18 14 15 15 15 14 11 12 10 8 8 9 11 10 11 11 13 13 14 13 13 13 12 14 17 17 14 11 8 7 8 9 11 13 13 13 14 14 14 13 13 14 14 14 14 14 14 15 15 15 16 16 16 16 16 16 16 16 16 16 15
5 5 5 2 3 5 4 4 5 3 3 2 4 4 7 7 6 8 8 8 11 11 9 9 7 4 1 2 1 3 6 9 10 13 17 18 15 16 16 16 16 14 12 12 10 8 8 9 10 10 10 11 12 13 14 13 13 13 12 13 16 16 14 10 7 7 8 10 12 13 13 13 13 14 13 13 13 14 13 13 13 13 14 14 14 14 15 15 16 16 16 16 16 16 16 16 16
6 7 7 3 4 6 5 5 4 4 3 1 4 6 7 7 7 10 11 10 12 10 9 10 6 3 2 2 3 3 6 7 7 11 19 15 12 19 18 17 17 14 12 11 10 8 7 9 10 10 9 10 11 13 13 13 14 13 12 12 13 16 14 9 7 8 9 11 12 12 12 12 13 14 14 14 15 13 11 12 13 13 13 13 14 14 14 14 14 15 15 16 16 17 17 16 16
7 8 9 5 5 3 3 3 3 4 1 1 3 8 8 7 9 11 11 10 10 8 8 9 4 3 3 3 4 3 6 6 7 11 18 12 13 20 19 18 17 14 12 10 10 8 8 9 10 9 9 9 10 11 12 13 14 13 12 13 14 15 14 10 8 8 9 10 11 11 11 12 13 13 13 14 14 12 11 11 11 11 12 13 13 13 14 14 14 15 15 16 16 17 17 17 16
6 7 8 5 4 2 3 3 3 4 2 4 2 8 9 6 11 12 11 10 7 6 6 7 2 3 4 1 1 3 5 6 8 12 15 13 17 19 18 19 16 14 12 10 10 8 8 9 10 9 8 9 10 10 11 12 13 13 13 13 14 15 13 12 9 9 10 11 11 11 11 11 11 11 12 13 14 13 11 10 11 12 13 13 12 13 14 13 14 14 15 16 16 16 17 17 17
6 6 6 5 4 2 5 4 4 4 3 5 3 6 9 9 12 14 12 9 5 4 6 6 3 2 4 4 3 2 6 7 8 13 12 15 21 18 19 19 15 15 13 11 10 9 9 9 10 9 8 8 9 10 10 11 12 12 12 13 13 14 14 12 10 9 9 11 11 10 10 10 10 10 10 12 14 14 10 8 9 11 12 12 12 13 13 13 14 14 15 15 16 16 16 16 16
8 4 4 4 3 3 5 5 3 1 3 3 3 3 6 11 12 13 11 9 6 7 8 6 5 4 4 4 3 3 8 9 11 16 14 18 20 17 20 18 15 15 13 11 10 9 10 9 9 8 8 7 8 9 9 10 10 11 12 12 13 14 15 12 10 8 7 9 9 9 9 10 10 10 9 10 12 12 9 8 8 10 10 11 12 12 12 13 13 14 14 14 15 15 15 15 15
9 2 3 4 3 4 5 5 2 2 3 4 4 3 4 10 12 11 10 8 7 8 9 8 6 3 5 6 4 5 8 10 14 17 16 19 18 16 18 16 16 16 13 12 10 10 10 9 9 8 8 7 7 8 9 9 9 10 10 11 12 13 14 12 10 8 5 8 9 9 9 10 10 10 9 10 10 10 9 9 9 9 10 10 11 11 12 12 12 13 13 14 14 14 14 14 14
7 4 3 4 4 4 5 5 3 2 5 4 4 4 6 10 10 11 10 7 9 8 8 8 6 3 2 5 6 5 8 10 16 17 16 19 17 15 16 15 16 16 13 12 10 10 10 9 9 8 8 7 7 7 8 9 9 9 9 10 11 11 11 10 10 8 6 9 10 10 10 10 10 10 10 10 9 9 9 9 9 9 10 10 11 11 11 12 12 12 12 13 13 14 14 14 14
6 5 2 3 5 5 6 5 4 3 6 4 4 6 7 10 9 10 10 7 9 9 9 8 5 5 3 4 5 5 8 11 17 17 16 19 17 14 15 14 16 16 14 13 12 10 9 9 9 8 7 7 7 6 7 8 8 8 9 9 10 10 10 9 9 8 9 10 11 11 10 10 10 10 10 10 9 9 9 9 9 9 10 10 11 11 11 11 11 11 12 12 13 13 13 13 13
6 5 3 4 6 5 4 3 4 4 5 5 5 7 8 11 9 9 10 8 9 8 11 10 4 6 5 4 5 5 9 12 17 16 17 18 15 15 15 13 15 16 15 14 12 10 9 9 8 8 7 7 7 6 6 7 7 8 8 9 9 9 9 9 9 9 10 11 11 11 10 10 10 10 10 11 10 10 9 8 8 9 10 11 11 10 10 10 10 10 11 11 12 12 12 12 12
6 6 5 4 3 3 1 1 3 4 4 5 6 9 10 12 10 10 9 8 10 7 10 11 3 5 4 5 6 5 9 15 18 16 17 18 15 15 15 13 14 16 16 15 13 12 10 9 8 7 7 7 6 6 6 5 6 7 7 8 8 8 8 9 8 9 10 10 10 10 10 9 10 10 11 10 10 9 8 8 8 9 10 11 10 9 9 9 9 10 10 10 10 10 11 11 12
5 3 5 3 1 2 2 1 3 4 5 7 8 11 12 11 9 8 8 8 9 6 10 11 4 5 4 5 8 9 13 17 19 17 17 18 14 14 15 14 14 15 17 16 14 13 11 10 9 8 7 6 6 6 6 6 5 6 6 7 7 7 7 8 8 9 9 10 10 9 9 9 9 10 10 10 9 9 8 8 8 9 10 10 9 8 8 8 8 9 9 9 9 9 10 10 11
5 1 4 3 2 3 3 1 3 5 4 9 9 14 13 9 6 5 7 6 5 6 10 12 8 4 1 2 6 11 17 19 19 17 17 18 14 14 16 14 14 15 16 16 14 14 13 11 10 9 7 6 5 5 5 6 5 5 5 6 6 6 6 6 7 8 8 9 9 9 8 8 9 9 9 9 8 8 7 7 8 8 8 9 8 7 7 7 7 7 8 8 8 8 8 9 9
6 3 3 3 4 4 4 2 2 4 4 9 11 15 12 7 7 6 6 2 4 8 7 7 10 3 4 4 9 12 18 19 19 18 18 19 15 14 15 14 13 13 15 15 13 14 14 13 11 10 8 7 6 5 5 6 5 5 5 5 5 5 5 5 5 6 7 7 8 8 8 7 7 7 8 8 7 7 7 7 7 7 7 7 7 6 6 6 6 6 6 7 7 7 7 7 7
7 4 4 3 4 4 5 6 4 2 6 10 12 15 12 8 9 7 7 5 3 8 7 5 10 7 0 4 11 13 16 19 20 19 19 19 16 14 14 14 13 14 16 16 14 15 15 15 13 11 10 9 7 6 6 6 6 6 6 5 5 5 5 4 4 4 5 5 6 6 6 7 6 6 6 6 6 6 6 6 7 7 6 6 6 6 6 5 5 5 5 6 6 5 5 5 5
6 4 5 5 5 4 4 6 3 2 6 10 13 17 13 9 11 8 7 8 4 6 8 7 9 9 6 5 10 13 15 19 21 21 20 21 19 16 15 15 14 15 17 17 15 14 14 15 15 13 12 11 10 9 7 8 8 8 7 7 6 6 6 5 4 4 4 4 4 4 4 5 5 5 5 5 5 5 5 5 6 6 6 5 5 5 5 5 5 5 5 5 5 4 4 4 4
6 4 5 6 4 3 2 3 3 3 5 12 13 15 12 9 13 11 8 9 9 7 8 9 8 10 10 7 9 13 16 19 23 22 22 24 23 20 18 17 16 16 18 18 15 14 14 15 16 15 14 13 12 11 9 9 10 10 9 9 8 7 7 6 6 5 4 4 3 2 2 3 3 3 3 4 4 4 4 4 5 6 6 5 5 4 4 4 4 4 4 4 4 3 3 3 2
5 3 5 4 3 5 4 3 4 4 4 11 13 12 9 8 13 12 9 9 10 10 9 11 11 12 12 11 11 13 16 19 23 23 23 25 25 24 22 19 19 18 17 17 14 14 14 14 16 16 16 16 14 13 12 10 10 11 10 10 10 9 8 8 7 7 6 5 4 2 1 0 1 1 1 2 2 3 3 3 4 5 5 6 5 4 3 3 3 3 3 2 2 3 2 2 1
4 4 3 1 2 4 4 4 5 5 5 9 12 11 8 8 10 11 10 8 8 11 11 11 13 14 15 14 12 13 17 20 22 22 24 26 25 24 22 20 21 20 17 16 13 14 14 14 15 16 17 17 16 15 14 12 11 10 10 10 10 10 10 9 8 8 7 6 5 4 3 2 1 1 0 0 1 2 2 2 3 3 4 5 5 5 4 3 2 2 1 0 1 2 2 1 1
5 4 2 5 2 2 5 4 5 6 5 9 12 11 9 8 8 11 12 8 3 4 9 10 8 11 16 17 13 14 19 21 22 23 25 27 26 24 21 19 19 20 19 18 15 15 15 15 15 15 16 18 18 17 16 15 13 11 11 11 10 10 11 10 8 8 8 7 7 6 5 3 2 2 2 1 1 1 2 2 2 2 3 4 4 4 4 3 3 2 2 1 1 2 2 2 1
5 4 2 4 3 3 4 2 5 5 5 9 11 9 9 9 9 11 14 10 2 4 6 9 8 9 14 17 15 14 18 21 22 24 26 27 26 25 22 19 20 22 22 21 18 16 16 16 16 15 15 17 19 19 18 18 16 12 12 13 12 11 12 12 10 8 8 9 9 7 6 5 5 4 3 3 3 2 3 3 3 3 3 4 4 5 5 4 4 3 3 2 2 2 2 3 2
7 3 6 4 5 3 3 2 6 5 3 7 8 8 9 10 8 7 13 12 3 2 5 7 10 12 13 13 15 15 15 18 20 22 24 24 24 24 22 19 20 22 24 24 21 17 18 18 17 16 16 16 17 18 18 18 16 14 14 16 15 14 14 13 13 11 10 10 10 9 8 7 7 6 5 5 5 4 4 4 5 5 5 5 5 6 6 6 6 6 5 4 4 4 4 4 4
9 3 7 5 5 4 3 3 5 4 4 5 7 7 7 6 4 4 12 12 9 10 6 4 6 11 14 13 13 15 16 17 19 21 23 23 22 22 21 20 19 20 22 23 22 19 19 20 20 18 17 16 15 16 17 17 17 16 16 17 17 17 16 14 15 14 13 12 12 11 10 9 8 7 7 7 7 7 6 6 7 7 7 7 7 7 7 8 8 8 7 6 6 6 6 6 6
8 5 7 7 6 5 4 3 4 4 4 5 8 7 3 3 4 6 10 11 11 15 13 8 5 7 13 14 13 15 16 18 18 20 22 23 23 22 23 22 21 20 20 20 21 20 19 21 23 22 20 18 16 16 17 17 17 17 17 18 19 19 18 17 17 16 15 14 14 13 12 11 9 8 9 9 9 9 8 8 8 8 9 9 9 9 9 9 9 9 9 9 8 8 8 8 8
6 8 8 8 6 5 3 3 5 4 4 6 7 6 2 2 4 5 8 13 14 14 13 15 12 8 9 13 15 15 16 17 18 19 20 22 24 24 24 24 23 20 19 20 22 21 19 20 24 25 23 22 19 16 17 17 17 17 17 18 20 20 19 19 20 18 17 16 16 16 14 13 12 10 10 11 11 10 10 10 10 10 10 10 10 10 11 11 11 11 10 10 10 10 10 9 9
9 13 9 7 6 6 3 4 6 4 4 6 4 4 3 3 4 4 8 12 14 13 12 15 16 13 11 12 14 16 17 17 18 20 21 22 23 23 23 23 23 22 21 22 22 22 21 20 22 24 24 23 22 19 18 18 17 17 17 17 19 20 20 21 22 20 19 19 19 18 16 15 14 14 13 13 12 11 11 11 10 11 11 11 11 11 11 12 13 13 12 12 11 11 11 11 11
9 12 7 7 6 6 5 4 6 3 4 7 3 3 5 6 9 8 8 9 9 12 12 13 16 15 13 13 15 16 18 19 20 21 21 21 20 20 20 21 22 22 22 23 22 23 23 22 22 22 23 22 22 20 18 18 18 17 17 18 18 19 20 22 23 21 20 21 20 20 18 16 16 16 15 14 13 13 13 12 12 12 13 13 13 13 13 13 13 14 13 13 13 13 13 13 13
8 9 5 6 5 6 7 5 5 3 4 10 5 3 7 11 14 11 12 11 9 10 11 11 15 15 15 16 18 18 18 20 21 21 20 20 19 18 19 20 21 21 21 22 23 23 23 23 23 22 22 22 22 20 19 18 18 18 18 18 18 19 20 21 23 22 22 22 21 21 20 19 19 17 17 16 15 16 16 15 14 15 15 15 15 15 15 15 15 15 15 14 15 14 14 15 15
7 6 5 6 6 6 8 6 7 4 6 10 5 4 5 8 12 10 12 14 11 9 9 10 12 14 16 19 21 21 20 20 20 20 20 20 19 19 19 20 20 21 21 21 21 21 21 23 23 22 22 22 22 22 21 19 18 19 19 18 17 19 22 22 22 22 23 24 24 24 23 22 21 19 19 18 18 18 18 18 17 16 16 16 16 16 16 17 17 17 17 17 17 15 15 17 17
6 6 6 7 6 5 7 6 7 3 5 9 6 5 5 5 10 8 11 13 11 10 9 10 10 11 14 17 21 22 22 22 20 20 21 21 20 20 20 20 20 20 21 20 19 20 21 21 22 22 21 21 21 21 21 20 19 18 18 18 17 18 21 22 22 22 23 23 23 23 24 24 23 21 21 20 20 20 20 19 18 18 18 17 17 16 15 16 16 18 18 18 18 17 17 19 19
6 7 7 8 8 6 6 5 5 2 5 10 8 5 5 4 8 6 9 10 10 10 10 11 11 10 11 14 18 21 22 23 23 21 21 21 22 21 21 21 21 20 20 20 20 20 21 21 21 21 21 20 21 21 21 21 20 18 18 18 18 18 19 20 21 22 23 22 21 20 23 24 22 21 21 20 20 21 21 20 20 20 19 19 19 17 16 16 17 18 18 18 18 19 20 21 21
7 7 6 6 9 7 5 4 5 5 5 8 10 7 7 3 7 7 9 9 9 10 11 11 11 11 11 12 15 19 21 24 24 23 22 22 22 22 22 21 21 21 21 21 21 21 21 22 22 21 21 21 20 20 20 20 19 18 18 19 20 20 20 20 20 22 24 24 23 21 21 20 19 18 19 18 18 18 18 19 20 19 17 17 19 19 18 19 20 20 20 19 19 20 22 22 22
9 8 6 4 6 7 5 4 6 9 7 8 10 10 13 8 6 9 11 11 9 8 9 9 10 11 12 12 14 17 20 23 25 23 22 23 23 23 23 23 23 23 22 22 22 23 22 23 23 23 22 22 21 21 20 19 19 19 19 19 19 21 22 21 21 22 23 24 25 23 20 18 16 17 18 19 18 16 16 17 17 16 15 17 18 19 20 21 22 23 22 21 21 21 23 24 25
11 11 9 7 7 7 4 3 3 5 7 9 11 10 12 13 10 9 12 13 10 9 8 8 10 11 12 13 15 17 21 23 24 23 24 24 24 23 24 24 25 24 24 24 24 24 25 25 25 25 25 24 23 23 22 21 20 21 21 21 21 21 22 22 22 23 23 23 23 22 20 18 17 19 20 19 18 18 19 20 18 16 17 20 19 18 19 21 23 23 22 23 24 23 24 26 28
9 11 10 8 8 6 4 5 2 2 4 9 12 11 12 13 12 10 11 12 11 11 11 12 13 13 14 15 16 18 22 24 23 23 24 25 25 24 25 26 26 26 26 26 26 26 26 26 27 27 26 26 25 26 26 25 24 23 23 23 23 22 22 22 22 22 23 22 21 20 20 18 18 22 22 18 18 19 22 25 24 20 19 21 21 19 19 20 22 22 23 25 26 26 26 27 28
6 8 8 7 6 3 4 4 3 2 3 6 7 9 13 12 11 12 11 11 12 14 14 15 16 15 15 16 17 19 21 23 23 24 23 23 24 26 27 28 28 28 28 27 28 27 27 27 28 28 28 28 27 27 27 27 27 26 24 23 23 23 23 23 22 22 22 21 21 21 21 19 18 21 20 19 20 21 23 26 27 24 20 20 22 22 22 22 22 23 24 26 28 29 29 28 28
5 5 6 6 4 4 4 4 4 3 3 3 2 5 11 12 12 13 14 15 15 16 16 16 16 16 16 16 17 20 21 23 24 23 21 20 22 25 29 30 31 31 30 30 30 29 28 28 29 29 29 29 28 28 28 28 28 27 26 24 24 23 23 23 22 22 22 22 23 23 22 20 18 19 18 19 23 24 23 24 26 25 24 23 24 24 25 24 24 25 27 29 31 32 32 32 31
5 4 6 5 5 4 2 4 5 3 2 2 3 5 9 10 10 12 16 18 16 14 15 15 16 17 17 16 17 21 23 25 25 24 21 19 21 24 27 29 30 31 32 32 31 30 30 30 29 29 29 29 29 28 28 28 28 27 27 26 25 25 24 23 23 22 22 22 22 22 21 20 20 21 18 19 25 27 24 23 24 26 27 27 27 28 29 28 26 28 30 30 31 33 32 33 33
5 5 6 3 6 4 1 5 6 2 2 2 4 6 8 9 11 11 12 12 12 12 13 16 19 22 22 21 22 23 25 26 26 25 23 23 23 24 25 26 28 30 31 31 30 29 29 29 28 28 28 29 29 29 28 28 29 28 27 27 27 27 26 25 24 23 21 21 21 21 21 20 21 22 20 21 25 26 25 23 23 25 25 26 28 30 31 30 28 29 30 29 29 29 29 29 30
5 6 5 1 4 6 6 7 6 2 4 3 2 5 5 6 10 11 7 5 8 11 12 15 17 20 24 27 28 28 28 28 27 27 26 26 27 26 26 27 28 29 29 28 28 28 28 28 28 28 28 29 29 30 29 29 29 28 28 29 29 29 27 26 24 22 21 21 21 21 22 22 22 22 23 24 25 24 24 24 24 25 24 24 26 28 29 28 28 29 29 29 28 27 28 30 31
5 4 3 2 3 6 8 8 6 2 2 1 1 5 4 2 6 8 6 5 8 9 10 13 14 15 19 26 28 29 30 30 28 29 28 28 29 29 30 29 30 30 29 29 29 29 29 29 29 30 30 31 32 32 31 30 29 28 28 29 29 29 28 25 22 19 19 20 21 22 23 24 24 23 23 25 25 24 23 22 24 26 25 25 25 25 27 28 28 29 29 29 29 28 29 31 32
3 1 2 5 5 6 8 7 5 2 1 2 2 4 4 5 3 4 5 5 8 8 10 12 13 13 15 19 24 26 27 28 28 29 29 29 30 30 31 31 32 32 32 32 32 33 33 32 32 33 33 34 35 34 33 31 29 28 28 28 29 28 26 22 20 18 19 20 21 22 23 23 24 24 23 24 24 24 23 23 24 26 26 26 26 25 26 27 28 29 31 31 31 31 31 31 31
1 2 1 4 4 6 8 6 4 0 1 3 5 4 3 6 4 4 4 6 9 10 11 11 12 12 10 11 15 19 21 23 25 26 27 27 28 28 29 31 33 33 34 34 34 34 34 35 35 35 35 35 36 35 34 33 30 28 27 28 28 26 23 20 19 19 19 20 22 22 22 21 22 23 23 23 23 24 24 24 24 25 26 27 27 25 27 28 29 30 32 32 32 30 29 29 29
4 4 3 5 3 4 5 5 3 2 4 5 6 6 4 5 5 5 4 5 9 10 8 6 9 9 8 8 9 12 15 18 20 22 23 24 25 26 27 28 30 31 32 33 33 33 33 34 34 35 35 35 35 34 33 32 30 28 27 27 27 24 21 20 19 20 21 22 22 21 21 21 21 22 22 22 23 24 25 24 25 26 27 27 26 26 28 29 30 29 29 30 31 31 29 27 29
8 7 6 6 4 4 3 3 3 4 6 4 3 3 4 4 4 6 4 2 3 5 4 5 7 8 7 7 6 8 11 14 17 19 20 22 24 25 24 24 26 26 27 27 27 27 26 26 28 29 31 33 33 31 29 29 28 27 26 26 25 23 21 20 20 21 22 21 20 19 19 19 20 21 21 21 22 23 23 24 24 26 26 26 26 26 28 28 28 28 27 29 31 33 31 29 30
6 5 6 6 4 3 4 4 3 6 6 1 2 0 3 5 4 3 1 1 1 1 2 4 8 8 8 6 3 4 7 10 12 14 17 19 21 21 21 20 21 20 20 20 19 18 17 18 19 22 25 27 28 28 27 27 26 25 25 25 23 22 20 20 21 22 21 19 18 18 18 18 19 19 19 20 20 20 21 22 23 24 25 25 25 26 27 27 27 27 27 29 31 32 31 30 32
3 5 8 5 4 5 5 5 5 6 3 2 1 1 3 7 7 5 6 4 2 3 1 3 7 8 7 4 1 2 5 6 7 9 11 13 14 15 15 15 15 15 15 15 14 14 14 14 15 17 20 21 23 24 24 24 24 24 23 23 22 21 20 21 21 21 19 18 17 17 17 17 18 17 17 18 18 18 20 22 23 23 23 24 24 25 25 26 26 27 28 28 30 31 32 33 34
7 8 8 6 6 5 6 6 5 5 1 2 0 1 3 6 6 9 10 5 3 4 2 3 4 6 4 2 2 2 4 4 6 8 8 9 9 10 10 11 12 13 13 13 13 13 12 12 13 14 15 17 18 20 21 22 22 22 21 21 20 20 20 20 20 19 18 17 17 16 16 16 16 15 15 16 17 17 19 21 21 22 22 22 23 23 24 24 25 26 27 28 29 30 30 31 32
6 3 4 6 6 4 5 5 5 4 2 2 2 2 4 3 1 3 5 1 2 3 6 8 8 9 8 6 3 4 5 6 7 8 8 8 8 9 10 11 12 12 12 12 12 11 11 12 12 13 13 14 15 17 18 19 19 19 19 18 18 19 19 19 19 18 16 16 15 15 14 15 15 16 15 16 16 17 19 20 20 20 21 22 22 23 23 24 25 26 26 27 28 28 29 30 30
3 1 2 4 3 1 2 1 1 2 1 2 4 3 4 3 4 3 4 2 3 4 7 10 11 11 11 6 4 7 7 8 8 8 8 8 8 9 9 9 10 10 11 11 10 10 10 11 12 12 13 14 15 16 16 16 17 17 17 17 17 18 18 17 17 16 15 14 14 14 14 14 15 16 16 16 16 17 18 20 20 21 21 22 23 24 24 25 26 26 26 27 27 27 28 28 28
3 2 3 2 2 2 2 1 2 1 4 3 4 4 4 3 7 4 4 3 3 4 5 7 7 8 9 5 8 10 9 9 10 8 8 8 8 8 7 7 8 8 9 10 10 11 11 11 11 12 13 13 14 14 15 15 16 16 16 16 16 16 15 15 14 14 13 13 13 13 14 14 15 16 16 17 17 17 18 20 21 22 23 24 25 26 27 27 28 28 27 27 27 27 27 27 27
2 3 3 2 1 1 1 2 1 2 5 3 4 6 4 3 4 2 5 4 4 5 5 5 5 6 7 7 11 12 10 10 10 9 8 8 7 7 7 7 7 8 9 10 11 11 11 12 12 11 12 12 12 13 13 14 14 14 13 13 13 13 13 12 12 12 12 13 13 14 14 15 16 16 17 18 18 19 20 21 23 24 25 26 27 28 29 30 31 30 29 29 28 28 28 27 27
0 2 1 1 2 3 3 3 3 4 5 4 4 5 4 4 4 2 3 5 5 6 5 4 5 6 7 11 14 13 11 11 9 8 9 8 8 8 7 7 8 9 10 11 12 13 12 12 11 10 10 10 11 11 11 11 11 11 11 11 11 11 11 11 12 13 13 14 14 14 15 15 16 17 18 19 20 21 22 24 25 26 27 28 30 30 31 33 33 31 31 30 30 29 29 29 28
0 2 1 0 1 2 3 3 3 3 5 5 3 2 3 5 6 7 6 2 3 5 5 4 6 7 9 14 16 14 12 11 9 8 9 10 11 10 8 8 8 9 11 12 14 14 12 11 9 9 9 9 9 9 8 8 8 9 9 10 10 11 12 13 13 14 14 15 15 15 15 16 17 18 20 21 22 24 26 27 28 29 29 30 31 32 33 34 34 33 32 32 31 31 31 30 28
4 4 4 3 1 0 1 3 1 1 4 5 4 3 2 2 3 7 5 3 4 3 2 4 4 6 10 13 15 15 13 11 9 10 11 12 12 12 10 10 9 10 11 12 14 13 11 10 8 8 7 7 7 6 6 6 6 7 9 10 12 13 13 14 14 14 14 14 14 15 16 18 19 20 22 23 25 27 28 30 30 31 31 31 32 32 32 33 34 34 34 33 32 32 31 30 29
3 4 6 6 4 3 3 4 2 0 3 3 3 4 2 2 0 2 1 3 4 3 1 2 4 6 10 13 15 15 13 12 12 13 14 14 14 13 12 12 12 12 12 12 12 11 10 8 7 7 6 5 5 4 4 5 6 8 10 11 13 13 14 14 14 14 14 14 16 17 19 20 21 23 24 26 28 29 31 32 33 33 32 31 30 30 30 32 33 34 34 33 32 31 31 30 29
Wind_Direction
226 252 237 209 137 321 264 250 255 201 249 265 111 157 121 89 105 129 135 138 137 119 96 121 129 128 105 12 34 44 38 33 25 25 112 123 135 148 144 142 144 143 145 147 141 125 110 94 81 72 70 69 71 70 73 78 83 91 87 90 101 104 99 92 84 67 61 60 69 87 85 80 81 83 87 83 76 74 74 75 75 75 73 72 73 75 76 79 80 80 80 79 80 81 81 82 83
209 216 197 189 155 256 253 236 264 188 222 192 130 126 113 128 159 148 143 136 118 118 133 135 138 126 27 10 45 51 57 46 49 80 118 130 136 151 145 143 145 141 142 144 135 122 113 97 87 76 71 71 73 71 74 79 84 89 85 90 100 100 95 94 89 71 67 67 76 88 87 85 83 83 83 82 82 79 77 75 72 74 75 74 74 77 77 78 80 80 79 78 80 80 80 80 80
191 189 181 185 194 248 264 228 258 224 216 176 125 112 125 156 167 140 121 100 107 123 139 136 144 139 40 164 103 20 76 61 73 108 130 135 144 150 144 145 144 142 142 140 133 123 116 105 93 81 75 73 74 73 73 77 83 88 88 92 102 104 98 101 98 77 71 75 84 89 87 86 85 86 86 86 83 76 77 76 71 75 79 81 80 81 81 80 81 81 80 78 78 78 77 77 77
186 188 178 192 221 231 243 222 257 258 222 151 121 130 152 168 143 110 98 98 117 131 141 150 151 166 262 46 31 37 94 86 90 130 137 137 162 150 145 149 145 146 144 139 134 129 124 112 101 90 80 78 78 77 76 75 78 84 94 97 104 109 104 101 93 79 78 75 82 88 86 84 83 86 87 85 80 74 77 79 75 74 77 83 84 83 84 83 83 82 81 79 79 78 78 77 77
190 193 178 188 242 228 249 244 262 256 260 46 119 139 164 162 128 106 104 113 130 139 149 171 151 159 227 19 360 34 87 107 111 137 133 138 170 151 149 150 144 148 144 141 137 135 135 120 108 101 88 83 82 81 81 78 78 80 90 97 104 112 110 104 89 82 85 75 79 85 84 85 83 86 88 85 86 85 77 75 75 75 77 82 84 83 81 79 78 78 77 77 77 78 78 78 77
190 200 184 194 265 299 253 239 230 228 14 6 77 135 161 148 129 121 118 120 130 146 158 184 156 131 178 121 37 58 109 128 119 137 134 149 161 151 151 146 145 148 144 148 141 141 142 128 116 109 98 89 85 85 85 83 82 81 84 91 100 107 103 99 90 82 86 81 79 81 81 83 82 86 92 90 93 89 75 70 72 76 81 81 80 80 79 77 76 76 76 77 77 77 77 77 76
181 188 183 200 235 248 242 231 230 210 49 7 37 129 154 138 133 132 132 136 141 164 177 183 185 167 140 133 136 124 153 131 126 149 155 162 155 152 151 143 148 148 148 153 144 150 149 133 124 115 108 96 89 87 87 86 85 83 84 87 95 102 99 97 93 80 78 79 77 77 78 77 79 86 91 92 96 95 89 83 79 83 85 84 85 84 82 79 77 77 77 78 77 76 76 76 77
174 170 189 213 208 208 246 241 236 176 65 49 57 71 131 141 145 147 155 161 163 174 184 177 203 218 116 122 130 142 175 157 157 166 173 165 153 154 149 145 151 148 153 155 148 160 156 140 129 122 116 103 93 89 86 87 86 85 84 87 92 101 105 101 98 88 73 74 72 71 71 70 72 79 82 85 94 100 100 89 84 90 91 90 90 87 86 84 80 79 79 78 78 78 77 77 79
180 184 203 218 223 204 240 238 211 88 103 113 108 61 107 151 159 159 164 160 159 167 177 175 200 222 114 132 101 117 188 185 169 167 173 164 153 154 150 150 154 152 155 153 155 165 160 148 137 130 124 110 98 90 88 87 86 89 85 87 89 97 105 105 105 103 84 75 74 72 69 68 69 71 74 75 83 92 91 87 88 89 90 92 92 89 88 87 83 81 81 80 79 79 79 81 83
201 214 219 224 228 211 228 228 191 114 125 118 116 139 149 161 168 168 167 154 155 155 154 163 191 221 126 137 110 133 194 191 173 166 167 162 156 155 153 155 159 156 155 156 159 166 166 155 145 139 131 119 107 95 92 89 88 90 89 89 87 91 99 105 108 106 91 80 78 74 68 64 65 66 69 71 73 78 78 84 90 89 89 94 97 95 92 90 85 82 81 81 80 80 80 82 84
215 203 237 237 219 214 219 210 179 127 124 139 128 149 166 166 176 176 167 150 155 152 144 160 185 198 201 126 116 177 204 186 174 165 161 162 158 157 155 159 167 159 154 161 162 168 173 163 157 150 142 130 119 109 99 95 94 93 94 93 90 89 91 97 100 94 86 82 78 73 68 62 61 64 68 73 73 74 75 78 81 85 91 95 98 97 94 91 86 83 80 79 79 79 80 82 84
221 180 195 225 221 221 220 211 169 131 131 167 156 157 170 170 179 176 167 154 161 161 163 179 173 176 197 135 128 199 200 175 166 162 160 162 159 160 157 162 171 162 157 163 163 172 175 170 169 163 156 143 134 126 114 104 100 99 98 95 94 92 90 92 93 89 83 80 78 73 71 65 61 64 70 74 76 77 79 81 80 85 94 97 98 96 94 90 86 81 77 78 78 78 80 81 82
231 177 198 220 238 252 242 263 143 136 164 173 152 156 165 173 182 180 175 164 171 173 169 179 153 180 193 113 137 180 179 167 163 164 161 161 161 162 159 166 172 164 163 164 167 174 174 174 177 178 173 160 153 141 132 121 109 105 102 99 97 93 90 89 88 87 82 79 77 74 72 67 63 64 72 77 80 81 80 83 89 94 99 101 101 99 95 91 85 80 76 76 77 78 80 81 82
241 195 223 214 227 260 243 238 153 182 178 139 130 151 163 175 185 188 184 171 175 161 154 168 164 193 186 131 155 164 166 169 167 166 162 160 161 165 163 168 172 168 168 168 172 175 176 179 183 189 185 180 172 156 149 141 127 117 108 105 101 97 94 89 86 81 79 78 76 74 69 66 64 64 71 79 82 83 82 81 88 98 104 106 104 99 95 92 87 82 78 76 76 76 78 80 82
241 262 249 227 200 212 220 248 188 212 161 124 138 155 161 172 178 187 194 178 153 144 157 175 184 180 176 150 147 162 175 175 171 165 163 162 162 170 170 170 173 174 174 173 177 179 178 181 189 192 188 194 190 183 172 156 149 135 125 118 109 105 100 91 87 81 77 76 74 71 67 66 65 66 71 78 82 82 83 82 86 95 104 109 107 102 96 92 89 84 80 76 74 72 72 76 80
224 237 241 229 218 204 201 198 194 220 146 127 146 157 161 169 176 189 200 169 115 161 172 176 191 182 31 74 116 159 189 181 170 166 165 166 166 173 174 174 176 178 179 178 180 182 181 183 191 193 190 198 198 206 205 183 172 155 146 137 127 119 111 103 95 88 82 77 74 69 64 63 64 71 75 79 84 83 83 84 88 95 104 110 110 105 96 90 88 85 80 75 73 72 71 73 78
216 228 227 208 216 208 184 182 179 175 122 128 149 164 169 163 177 201 198 191 139 170 174 167 194 202 94 136 143 167 194 186 172 167 170 170 170 175 178 180 181 184 184 183 184 183 185 186 190 194 192 198 199 206 220 211 197 182 170 157 152 146 136 131 119 107 98 87 76 71 64 61 60 70 78 81 87 88 86 86 92 101 109 111 109 104 95 91 91 88 83 76 75 77 77 76 78
205 214 214 207 211 195 175 184 164 110 136 146 162 174 178 163 173 190 186 196 192 168 183 195 199 205 217 184 171 180 187 186 177 172 177 178 177 179 181 184 186 189 189 188 188 186 188 189 190 195 195 197 201 204 215 222 215 203 192 181 174 168 167 163 155 146 127 111 90 77 64 55 53 60 74 85 89 93 96 95 95 105 114 114 111 106 101 97 94 91 87 82 80 77 80 81 78
212 225 213 217 201 125 90 158 99 29 150 152 163 179 188 171 167 178 187 194 192 190 195 198 195 199 212 200 185 189 181 181 183 181 184 186 186 185 184 188 190 191 193 194 191 190 191 191 192 194 197 198 202 204 209 222 227 218 208 201 194 185 184 182 179 175 163 155 132 101 67 48 43 50 66 86 96 100 105 111 109 117 130 131 126 118 117 110 100 95 90 85 80 72 74 80 82
224 236 222 215 138 93 69 103 94 50 130 152 164 176 187 167 158 175 198 196 194 211 203 193 199 191 199 201 194 195 184 182 187 186 189 192 192 193 192 192 195 195 196 197 195 195 193 194 196 197 199 200 202 205 207 216 228 225 215 209 205 202 198 196 194 189 186 180 168 170 150 36 6 43 63 80 114 124 122 127 125 135 147 154 152 147 150 135 122 110 100 90 69 57 54 62 65
200 203 241 27 105 113 101 98 98 98 137 157 159 165 178 162 161 179 197 205 201 219 213 200 208 192 188 198 198 196 189 186 189 190 193 196 197 198 198 198 202 202 198 197 196 198 196 196 199 200 201 201 204 206 207 212 220 218 216 219 212 209 211 209 207 203 202 195 189 195 193 216 266 269 235 131 159 156 155 154 148 152 160 175 174 169 173 164 163 162 155 139 43 44 41 24 31
191 193 5 32 44 90 101 115 123 114 134 152 152 168 174 156 179 194 200 215 188 198 204 193 203 188 188 201 201 191 192 193 193 194 196 199 201 201 198 199 205 205 203 202 200 201 202 200 200 202 202 201 204 207 208 213 216 213 217 228 219 213 219 217 215 214 214 210 206 207 203 213 237 254 258 262 256 216 211 206 196 185 181 201 202 193 192 200 213 220 242 282 354 6 3 333 336
219 194 120 58 39 62 88 144 166 133 139 159 158 167 162 165 193 202 209 220 120 96 167 184 190 173 183 204 208 196 195 199 200 201 202 203 204 204 200 199 205 209 210 211 207 204 204 204 202 202 204 204 206 207 209 214 215 211 218 228 224 222 227 226 225 221 222 222 220 219 212 216 230 245 257 266 268 255 245 237 236 234 222 225 226 221 215 219 231 241 253 268 288 298 308 308 306
242 196 143 108 59 80 114 162 179 163 165 160 155 160 169 191 193 189 215 223 223 190 162 184 201 188 192 210 215 213 208 205 208 209 206 205 207 208 204 201 208 213 215 217 215 209 208 209 206 204 206 207 208 209 211 215 216 212 219 228 228 230 231 232 234 231 233 233 231 229 223 223 228 239 248 258 264 260 254 247 245 245 241 241 239 237 233 231 236 240 245 251 260 270 281 286 289
239 202 129 122 81 94 135 163 173 175 186 156 160 172 174 201 189 192 221 218 227 234 205 173 199 198 206 215 216 217 217 213 212 211 208 207 208 208 206 205 209 212 216 219 219 215 214 215 213 212 211 209 208 211 214 217 220 218 221 229 233 235 234 235 239 238 240 242 241 237 233 233 229 236 243 247 254 257 257 254 251 249 247 247 247 248 245 241 241 242 244 244 249 258 267 279 285
217 172 120 127 103 101 124 154 169 181 186 170 178 178 157 202 222 237 225 210 218 231 230 218 206 197 203 209 214 215 218 219 216 215 214 212 210 211 213 213 213 213 214 218 219 217 218 221 222 221 219 215 212 213 217 218 220 221 223 230 235 237 236 237 240 240 242 245 246 241 237 237 234 235 240 243 247 252 257 258 258 256 253 251 250 251 251 250 249 247 247 246 248 254 260 270 280
160 135 114 122 106 110 132 148 166 167 160 183 190 171 137 178 218 236 199 206 223 229 235 233 226 218 207 205 211 214 217 221 220 218 217 214 214 216 218 219 219 216 213 217 221 219 219 223 225 225 225 223 219 217 219 220 222 224 224 232 237 235 234 238 240 239 240 243 245 244 241 239 239 236 239 244 246 250 255 258 262 262 261 259 256 255 254 254 254 253 252 252 253 256 262 267 273
142 134 112 120 115 121 137 141 164 175 160 183 191 154 135 146 210 230 181 204 225 222 226 234 230 223 222 218 215 216 215 217 218 217 218 218 220 222 223 224 224 219 216 221 225 224 222 225 227 225 225 225 223 221 223 224 226 228 226 231 238 236 231 234 240 240 239 241 244 246 245 242 243 243 246 249 249 252 254 257 262 266 268 267 265 263 260 258 257 257 256 256 257 258 263 267 270
158 158 142 144 148 151 154 144 169 206 179 169 167 176 191 195 214 216 197 204 209 212 217 228 231 221 218 224 225 224 219 217 219 220 223 226 227 228 228 228 229 226 222 224 226 226 226 228 231 226 222 223 223 222 225 227 227 229 229 230 236 238 233 230 236 240 240 241 244 246 246 244 244 245 249 252 253 255 255 256 260 264 269 270 271 271 269 266 262 261 259 257 258 258 262 266 269
172 191 196 162 183 188 163 152 172 201 169 169 184 234 216 205 204 196 198 205 192 202 212 218 229 222 214 221 227 230 227 224 225 226 227 228 229 229 228 228 229 228 227 227 226 227 228 229 233 230 224 223 224 224 225 227 228 229 232 232 233 238 238 232 233 237 241 244 245 245 245 244 243 243 246 248 250 254 254 254 255 257 262 269 274 275 273 270 268 268 266 264 261 260 263 265 266
178 193 218 191 206 180 147 154 176 180 162 175 206 260 239 182 175 181 197 203 195 204 215 215 222 220 219 224 228 231 231 231 229 230 230 229 229 227 225 226 226 227 228 229 228 229 230 231 234 235 232 228 228 229 229 230 232 231 232 234 235 238 242 241 237 236 239 244 246 247 245 244 244 242 243 243 244 249 252 253 253 255 259 266 271 273 271 268 268 271 272 272 268 263 264 266 266
189 189 207 207 215 159 136 157 180 185 161 183 212 241 245 142 137 171 198 201 199 209 220 217 215 214 218 226 229 230 231 234 232 230 230 228 228 225 223 223 223 225 227 229 230 230 232 233 235 237 238 235 233 233 232 232 233 234 233 233 237 242 246 247 245 242 242 244 246 249 248 246 245 244 244 243 242 246 250 254 255 256 259 262 267 271 270 265 265 269 272 273 270 265 265 266 267
200 207 208 197 204 173 146 161 183 188 152 191 221 252 252 138 124 173 194 197 201 212 223 221 221 217 216 223 229 230 229 233 233 230 229 227 226 225 223 221 222 223 225 229 230 231 233 236 237 237 240 240 237 236 235 235 235 235 235 234 235 240 246 250 251 249 248 247 247 250 253 251 247 247 249 248 246 247 250 254 254 255 256 258 263 269 270 267 265 267 270 270 267 266 266 267 268
192 211 219 191 202 198 166 153 171 185 182 205 215 240 259 175 133 170 183 180 187 208 224 226 229 227 223 224 227 231 230 232 233 230 228 228 226 225 225 224 224 225 225 228 231 232 234 237 240 240 241 243 241 238 236 237 237 236 237 237 238 238 241 249 253 252 251 249 248 250 254 254 249 246 250 250 247 246 249 253 253 253 253 254 258 263 268 269 268 268 269 268 266 266 268 270 271
186 194 209 182 208 223 202 158 155 183 205 219 204 219 248 236 169 166 172 176 182 200 216 225 233 232 229 227 227 232 233 234 235 232 231 231 230 228 228 228 228 228 227 228 231 234 235 239 242 242 244 246 247 245 242 240 239 238 239 239 240 241 241 244 249 253 254 252 248 247 249 252 250 248 252 250 243 242 247 249 252 256 259 257 257 261 264 264 264 267 268 270 270 267 267 269 270
188 184 204 202 203 217 195 102 106 192 206 216 216 223 239 241 225 196 179 179 194 213 218 226 233 235 236 231 230 233 236 238 237 235 234 234 232 230 230 231 230 230 230 231 233 235 237 240 242 242 243 245 248 249 248 246 243 241 242 241 242 245 246 247 249 254 257 256 254 250 250 253 253 252 254 249 241 243 247 246 247 258 265 259 256 264 269 264 262 264 267 271 274 272 269 269 271
190 186 208 216 207 199 138 93 87 229 224 217 225 239 245 246 243 229 201 188 204 221 223 229 232 234 235 233 233 234 239 241 237 236 237 237 234 231 231 232 231 231 230 231 233 236 238 241 243 243 244 245 245 247 248 248 248 248 248 250 252 252 253 252 251 255 259 261 263 260 258 255 250 251 250 246 246 248 249 250 249 254 263 259 256 265 270 265 263 264 266 268 272 274 274 274 276
202 200 205 214 214 180 100 94 120 154 245 223 218 249 254 253 252 247 235 222 226 228 225 231 234 234 232 230 233 235 239 241 240 241 242 241 236 231 230 230 231 231 230 232 236 238 239 241 243 244 245 245 244 246 248 249 250 252 252 255 258 258 258 258 254 255 258 260 262 263 262 257 250 249 248 248 254 256 253 252 250 251 256 258 258 262 262 261 265 268 268 270 272 272 273 274 275
215 211 211 220 196 132 101 102 121 146 232 217 173 260 260 257 256 251 243 239 240 238 233 234 235 235 233 228 231 237 240 243 245 246 245 240 234 231 230 230 231 232 233 236 239 240 239 239 241 242 244 244 244 245 247 249 251 252 253 254 254 254 256 259 258 255 256 257 258 260 261 260 257 252 250 249 253 260 260 251 248 249 251 255 259 259 258 260 267 273 275 276 277 276 274 273 272
223 214 215 213 160 166 203 155 142 161 242 307 333 285 269 260 256 250 243 240 240 236 233 233 232 232 229 224 229 237 240 244 246 246 244 238 232 229 230 231 233 234 236 237 238 238 238 237 238 240 242 244 245 245 246 248 251 252 254 253 252 250 249 252 257 257 257 260 261 262 264 265 266 263 258 249 251 260 261 251 247 251 254 257 260 261 260 262 269 276 279 278 278 277 275 274 273
221 225 228 204 160 171 44 124 144 153 219 271 304 283 270 250 241 243 235 229 231 228 228 233 234 236 236 232 233 237 240 242 244 244 242 240 237 233 232 233 235 235 236 237 237 237 237 238 238 239 241 243 245 245 245 246 248 250 251 252 251 250 249 249 254 260 264 266 267 270 271 269 267 269 266 256 256 260 258 253 252 254 256 256 259 264 265 266 269 274 279 278 274 273 274 276 276
211 217 231 239 173 155 101 129 154 191 212 205 245 258 266 232 226 234 214 197 224 220 222 232 234 237 241 240 239 240 242 242 243 243 241 239 239 238 236 235 235 236 236 236 237 236 237 238 240 241 242 243 244 244 244 243 245 247 249 250 252 253 253 252 255 261 266 267 268 268 268 267 265 265 264 261 262 261 257 257 258 259 259 257 262 268 266 266 268 272 277 278 273 275 280 279 275
215 206 201 137 156 151 137 160 182 228 220 138 219 244 260 223 213 216 198 212 232 217 220 233 230 225 232 239 241 241 242 243 243 243 241 240 240 240 240 239 238 239 237 236 236 237 239 242 244 244 243 243 243 243 244 243 243 244 246 249 252 254 256 257 259 260 260 260 262 259 257 259 260 259 257 257 260 261 261 262 262 264 263 261 263 265 263 265 268 271 273 275 274 275 279 279 274
216 33 188 157 161 167 160 181 206 238 86 113 212 239 265 262 227 158 166 226 244 229 227 231 224 215 219 233 240 240 242 244 244 244 244 243 242 242 242 242 241 241 240 239 239 240 243 244 244 243 242 242 242 242 242 242 242 243 245 247 249 251 253 257 259 257 257 257 257 256 253 252 254 254 253 253 257 261 263 262 263 266 264 263 262 261 264 266 269 273 271 272 275 272 272 274 275
194 30 231 149 159 177 171 190 208 229 265 209 192 185 241 257 232 150 164 237 246 238 235 225 211 204 201 214 229 237 239 240 241 243 244 245 245 244 242 242 242 241 241 241 242 243 243 243 243 241 240 241 241 241 240 240 240 241 243 245 246 248 250 253 255 256 257 257 257 258 258 256 255 257 258 258 260 263 266 266 265 265 264 265 265 264 265 265 267 270 269 272 278 276 272 271 273
151 149 107 97 117 151 167 201 193 179 245 232 180 178 235 262 233 191 182 232 239 237 235 208 180 173 169 184 211 229 235 237 238 240 242 243 244 243 240 239 239 239 239 240 242 243 244 244 243 241 240 240 240 240 239 238 238 238 240 242 244 247 247 249 252 253 255 257 259 261 262 263 263 264 265 263 263 264 267 268 268 269 269 269 269 267 266 265 265 266 269 275 279 278 276 272 275
143 149 118 107 124 141 167 207 194 205 231 226 149 172 252 274 240 206 192 219 241 235 214 154 148 150 151 167 195 225 238 243 241 239 239 239 240 241 239 236 235 235 236 237 239 241 243 243 241 239 237 238 239 239 236 234 234 236 237 240 243 246 247 248 250 252 255 258 261 263 263 264 263 262 263 262 261 262 265 268 268 270 272 272 273 271 270 269 269 269 272 274 273 273 274 274 277
151 156 143 129 131 152 182 184 195 228 229 177 86 334 247 241 233 196 175 26 58 240 224 159 159 153 143 149 178 234 245 249 243 236 234 234 236 237 235 232 230 231 230 230 231 230 230 230 229 230 231 234 237 236 232 230 232 234 236 239 243 244 245 247 250 252 255 258 260 261 260 260 260 260 260 262 263 263 266 269 269 269 272 274 276 275 275 276 277 277 274 271 271 273 276 278 279
201 176 163 166 167 172 201 190 196 226 212 90 80 298 246 244 247 246 270 280 182 178 221 161 158 148 136 139 168 243 245 243 228 219 220 222 226 227 225 223 221 220 219 217 217 215 215 214 216 221 227 230 232 230 227 227 230 234 237 239 240 241 242 245 249 252 255 256 255 255 255 256 260 261 261 263 265 264 264 265 267 268 271 273 275 277 279 280 281 281 280 277 276 277 278 279 280
200 187 181 194 183 179 202 194 203 221 172 70 209 255 258 258 257 246 254 261 133 144 182 195 185 173 176 224 245 214 219 211 190 187 192 196 201 203 202 204 205 206 207 206 206 205 204 205 209 214 219 222 223 223 224 226 230 234 235 236 235 236 239 242 246 249 249 249 248 250 252 255 260 263 262 262 262 261 262 264 266 268 270 271 274 276 278 280 280 280 281 280 278 278 279 280 282
197 205 206 212 203 204 205 197 210 198 117 95 187 231 237 229 97 216 228 180 126 205 219 228 232 228 245 265 228 181 190 182 168 167 168 169 173 176 181 186 190 194 196 197 199 199 199 200 203 207 209 211 214 216 220 223 226 228 228 229 230 232 235 237 241 243 244 246 248 251 253 253 257 261 261 260 259 260 263 267 269 270 271 273 274 275 276 276 276 276 277 278 279 280 280 281 282
189 354 256 232 233 204 167 171 182 140 87 165 184 246 251 264 305 249 193 171 203 212 215 227 235 238 254 259 180 176 187 174 163 159 157 157 160 164 171 176 179 182 183 184 185 187 190 192 194 197 199 201 204 207 211 214 217 220 221 223 225 227 230 233 237 241 245 249 252 256 258 259 262 264 267 267 266 264 265 269 273 274 274 275 275 276 275 273 271 271 271 272 275 277 278 281 282
173 179 201 220 4 64 129 160 86 73 272 200 168 238 248 269 282 243 160 169 184 169 190 207 210 221 239 223 173 181 189 174 163 159 156 158 158 157 158 161 165 167 167 168 169 171 174 176 179 182 185 189 193 197 203 207 211 214 216 219 221 225 229 234 240 245 251 255 258 263 267 271 274 275 276 276 275 273 272 274 278 281 280 278 277 277 276 275 271 269 268 268 270 272 274 278 279
152 184 181 140 23 8 202 236 166 187 247 214 169 228 236 215 244 170 147 187 188 168 172 173 179 200 211 190 176 183 190 179 169 164 163 164 162 158 153 151 154 159 163 163 163 162 161 161 164 169 175 183 189 196 203 207 211 214 216 220 225 231 236 241 246 251 256 259 263 269 272 276 280 280 281 281 282 282 283 283 283 283 283 281 280 279 277 277 274 273 273 271 271 271 271 274 276
355 266 273 125 206 215 189 219 222 202 229 238 194 216 242 223 217 205 191 194 185 175 164 165 187 191 188 181 177 181 188 182 175 176 178 176 173 167 159 156 158 162 164 162 159 156 155 157 163 171 180 188 195 202 208 211 215 217 221 227 232 239 244 247 252 254 259 263 267 272 275 279 282 285 289 291 293 293 292 291 288 285 282 281 280 279 278 278 278 279 279 278 277 275 274 274 275
177 294 300 328 253 234 195 205 236 224 223 237 211 191 233 217 210 227 226 177 151 173 169 181 191 182 184 181 174 175 182 183 185 187 185 182 178 172 168 168 166 165 164 163 161 159 159 162 168 176 184 190 196 202 207 211 217 221 228 234 238 245 249 251 255 258 262 267 271 276 280 284 288 292 295 296 297 298 297 295 292 288 284 281 279 279 279 280 283 283 282 280 279 278 277 278 278
184 194 183 186 190 7 242 221 235 262 234 238 238 235 235 177 197 226 223 103 97 125 178 191 171 166 181 178 169 170 176 181 184 179 174 173 171 167 166 166 163 161 161 161 164 165 165 168 172 177 181 184 188 193 201 211 224 231 237 242 245 249 252 255 258 262 267 272 276 282 286 288 291 291 291 292 293 295 295 295 294 291 289 286 284 283 282 283 283 283 282 280 279 279 280 282 282
193 201 194 196 180 149 207 212 164 346 258 252 256 260 246 101 71 242 175 84 81 73 32 176 145 160 177 172 165 165 169 171 166 160 159 157 157 156 154 155 155 154 154 155 160 164 167 170 172 177 180 182 189 200 217 236 249 251 252 252 253 256 257 258 261 264 269 276 280 284 286 286 286 286 287 289 290 292 293 293 293 293 292 290 290 289 287 284 282 281 281 280 280 281 282 283 284